"Pseudo-MPEC" for X71114

Created 2020 Nov 28 23:07:10 UT using Find_Orb

Click here for an explanation of pseudo-MPECs

 
 Astrometry: 
     X71114   C2020 11 08d_o_Rx)AstrometryIKSye':G`'abGSd.EA\Pg.uQGredacted;jD29
     X71114   C2020 11 08jSCsWnV3bJZHRudSN(bNJxX@eg;h+aB(4yQ;/clickdWZy%here2D29
     X71114   C2020 11 08NC?#K'+uYc;DPV;s;x6nO+#nforb]GAIuiRjJexplanation]?*GD29

Station data:
(D29) Purple Mountain Observatory, XuYi Station  (N32.734366 E118.463900)
   China.  Observers H. B. Zhao, B. Li, G. Zhaori, R. Q. Hong, L. F. Hu.
   Measurers H. B. Zhao, B. Li. H. Lu, G. Zhaori. 1.04-m f/1.8 Schmidt + CCD.

Orbital elements:  X71114
   Perihelion 2020 Nov 24.731192 +/- 43.1 TT = 17:32:55 (JD 2459178.231192)
Epoch 2020 Nov  9.0 TT = JDT 2459162.5   Earth MOID: 0.3314   Ma: 0.0454
M 355.23954433 +/- 18               (J2000 ecliptic)          AutoNEOCP
n   0.30261252 +/- 0.274            Peri.  286.44056 +/- 100
a   2.19724312 +/- 1.33             Node   129.30996 +/- 50
e   0.4110511 +/- 0.252             Incl.    6.79323 +/- 5.5
P   3.26                   H 21.7   G  0.15   U 11.9  SR
q 1.29406386 +/- 0.356    Q 3.10042237 +/- 70.4
From 3 observations 2020 Nov. 8 (40.7 min); mean residual 0".07
Residuals in arcseconds: 
201108 D29  .07+  .01-    201108 D29  .14-  .02+    201108 D29  .07+  .01-    

Ephemerides (geocentric):
Date (UTC) HH   RA              Dec         delta   r     elong  mag " sig PA
---- -- -- --  -------------   -----------  ------ ------ -----  --- ---- ---
2020 11 28 23  02 45 46.586   -08 22 40.77  .36547 1.2947 142.2 21.3  45d 172
2020 11 29 00  02 45 48.417   -08 21 52.44  .36555 1.2947 142.2 21.3  45d 172
2020 11 29 01  02 45 50.251   -08 21 04.05  .36563 1.2947 142.2 21.3  45d 172
2020 11 29 02  02 45 52.088   -08 20 15.60  .36571 1.2948 142.2 21.3  45d 172
2020 11 29 03  02 45 53.929   -08 19 27.09  .36579 1.2948 142.1 21.3  45d 172
2020 11 29 04  02 45 55.773   -08 18 38.52  .36587 1.2948 142.1 21.3  45d 172
2020 11 29 05  02 45 57.620   -08 17 49.89  .36595 1.2948 142.1 21.3  45d 172
2020 11 29 06  02 45 59.470   -08 17 01.20  .36603 1.2948 142.1 21.3  45d 172
2020 11 29 07  02 46 01.324   -08 16 12.46  .36611 1.2948 142.1 21.3  45d 172
2020 11 29 08  02 46 03.180   -08 15 23.65  .36619 1.2948 142.1 21.3  45d 172
2020 11 29 09  02 46 05.041   -08 14 34.79  .36627 1.2948 142.0 21.3  45d 172
2020 11 29 10  02 46 06.904   -08 13 45.87  .36636 1.2949 142.0 21.3  46d 172
2020 11 29 11  02 46 08.770   -08 12 56.88  .36644 1.2949 142.0 21.3  46d 172
2020 11 29 12  02 46 10.640   -08 12 07.84  .36652 1.2949 142.0 21.3  46d 172
2020 11 29 13  02 46 12.513   -08 11 18.75  .36660 1.2949 142.0 21.3  46d 172
2020 11 29 14  02 46 14.390   -08 10 29.59  .36668 1.2949 142.0 21.3  46d 172
2020 11 29 15  02 46 16.269   -08 09 40.38  .36677 1.2949 141.9 21.3  46d 172
2020 11 29 16  02 46 18.152   -08 08 51.10  .36685 1.2949 141.9 21.3  46d 172
2020 11 29 17  02 46 20.038   -08 08 01.77  .36693 1.2950 141.9 21.3  46d 172
2020 11 29 18  02 46 21.928   -08 07 12.39  .36702 1.2950 141.9 21.3  46d 172
2020 11 29 19  02 46 23.820   -08 06 22.94  .36710 1.2950 141.9 21.3  46d 172
2020 11 29 20  02 46 25.716   -08 05 33.44  .36718 1.2950 141.9 21.3  46d 172
2020 11 29 21  02 46 27.615   -08 04 43.88  .36727 1.2950 141.8 21.3  46d 172
2020 11 29 22  02 46 29.518   -08 03 54.26  .36735 1.2950 141.8 21.3  46d 172
2020 11 29 23  02 46 31.424   -08 03 04.58  .36743 1.2951 141.8 21.3  46d 172
2020 11 30 00  02 46 33.333   -08 02 14.85  .36752 1.2951 141.8 21.3  46d 172
2020 11 30 01  02 46 35.245   -08 01 25.06  .36760 1.2951 141.8 21.3  46d 172
2020 11 30 02  02 46 37.160   -08 00 35.21  .36769 1.2951 141.8 21.3  46d 172
2020 11 30 03  02 46 39.079   -07 59 45.31  .36777 1.2951 141.7 21.3  46d 172
2020 11 30 04  02 46 41.001   -07 58 55.35  .36786 1.2951 141.7 21.3  46d 172
2020 11 30 05  02 46 42.926   -07 58 05.33  .36794 1.2952 141.7 21.3  46d 172
2020 11 30 06  02 46 44.855   -07 57 15.26  .36802 1.2952 141.7 21.3  46d 172
2020 11 30 07  02 46 46.787   -07 56 25.12  .36811 1.2952 141.7 21.3  46d 172
2020 11 30 08  02 46 48.722   -07 55 34.94  .36820 1.2952 141.7 21.3  46d 172
2020 11 30 09  02 46 50.660   -07 54 44.69  .36828 1.2952 141.6 21.3  46d 173
2020 11 30 10  02 46 52.602   -07 53 54.40  .36837 1.2952 141.6 21.3  46d 173
2020 11 30 11  02 46 54.547   -07 53 04.04  .36845 1.2953 141.6 21.3  46d 173
2020 11 30 12  02 46 56.495   -07 52 13.63  .36854 1.2953 141.6 21.3  47d 173
2020 11 30 13  02 46 58.447   -07 51 23.16  .36863 1.2953 141.6 21.3  47d 173
2020 11 30 14  02 47 00.401   -07 50 32.64  .36871 1.2953 141.5 21.3  47d 173
2020 11 30 15  02 47 02.359   -07 49 42.06  .36880 1.2953 141.5 21.3  47d 173
2020 11 30 16  02 47 04.321   -07 48 51.42  .36888 1.2953 141.5 21.3  47d 173
2020 11 30 17  02 47 06.285   -07 48 00.74  .36897 1.2954 141.5 21.3  47d 173
2020 11 30 18  02 47 08.253   -07 47 09.99  .36906 1.2954 141.5 21.3  47d 173
2020 11 30 19  02 47 10.224   -07 46 19.19  .36915 1.2954 141.5 21.3  47d 173
2020 11 30 20  02 47 12.199   -07 45 28.33  .36923 1.2954 141.4 21.3  47d 173
2020 11 30 21  02 47 14.177   -07 44 37.42  .36932 1.2954 141.4 21.3  47d 173
2020 11 30 22  02 47 16.158   -07 43 46.46  .36941 1.2955 141.4 21.3  47d 173